sat.trackr.live / text

‹ back to catalog

STARLINK-35414

NORAD 65798 · 2025-218H

PAYLOAD ACTIVE UNKNOWN

§ Identity

Operator
Country
US
Launch date
2025-09-26
Launch site
AFWTR
Launch vehicle
Mass (kg)
RCS (m²)

Purposes: comms

External: N2YO · Heavens-Above · Gunter

§ Orbital elements

Epoch: 2026-05-25T03:31:08.793120Z

Period
95.64 min
Inclination
97.4501°
Eccentricity
0.0002359
Mean motion
15.05655534 rev/d
Perigee alt
547.9 km
Apogee alt
551.1 km
Semi-major
6,927.6 km
B*
1.7549e-4
RAAN
7.9265°
Arg perigee
92.3462°
Mean anomaly
267.8035°
Rev number
3,647

§ Raw data

STARLINK-354141 65798U 25218H   26145.14662955  .00002475  00000+0  17549-3 0  99952 65798  97.4501   7.9265 0002359  92.3462 267.8035 15.05655534 36477

JSON: /api/v1/satellites/65798 · /tle

For live sub-satellite position, see the globe view (requires WebGL).

§ Visibility from observer

Set your observer location to see the next 7 days of passes ≥ 10°. The values pass through the URL so the page stays shareable.

No JS? Fill the form by hand. The geolocation button needs JavaScript.